QPF
0.00 0.00 0.00 0.00 0.00 0.00 0.00 0.00 0.00 0.00 0.00 0.00 0.00 0.00 0.00 0.00 0.01 0.01 0.01 0.02 0.02 0.02 0.02 0.01 0.01 0.02 0.01 0.01 0.01 0.01 0.02 0.02 0.02 0.03 0.04 0.04 0.04 0.04 0.04 0.02 0.02 0.02 0.03 0.03
0.00 0.00 0.00 0.00 0.00 0.00 0.00 0.00 0.00 0.00 0.00 0.00 0.01 0.01 0.01 0.01 0.02 0.01 0.01 0.01 0.01 0.02 0.01 0.01 0.01 0.01 0.01 0.02 0.02 0.03 0.04 0.04 0.04 0.04 0.05 0.04 0.04 0.05 0.06 0.05 0.04 0.04 0.04 0.05
0.00 0.00 0.00 0.00 0.00 0.00 0.00 0.00 0.00 0.00 0.00 0.00 0.00 0.00 0.01 0.01 0.01 0.01 0.01 0.02 0.03 0.03 0.02 0.02 0.02 0.01 0.01 0.02 0.03 0.05 0.08 0.10 0.09 0.06 0.04 0.03 0.05 0.06 0.05 0.06 0.06 0.06 0.04 0.04
0.00 0.00 0.00 0.01 0.00 0.00 0.00 0.00 0.00 0.00 0.00 0.00 0.01 0.00 0.01 0.01 0.01 0.01 0.01 0.02 0.04 0.05 0.05 0.06 0.06 0.04 0.02 0.03 0.04 0.05 0.05 0.05 0.05 0.04 0.03 0.04 0.04 0.04 0.03 0.03 0.03 0.02 0.02 0.03
0.00 0.00 0.01 0.01 0.01 0.00 0.00 0.00 0.00 0.00 0.00 0.01 0.01 0.01 0.01 0.01 0.02 0.02 0.04 0.05 0.05 0.06 0.07 0.07 0.08 0.07 0.06 0.06 0.06 0.05 0.04 0.03 0.03 0.02 0.02 0.02 0.02 0.02 0.03 0.02 0.01 0.01 0.01 0.02
0.00 0.00 0.00 0.00 0.00 0.00 0.01 0.01 0.01 0.01 0.01 0.01 0.02 0.02 0.01 0.01 0.02 0.04 0.07 0.08 0.07 0.07 0.08 0.08 0.07 0.07 0.06 0.07 0.06 0.06 0.05 0.03 0.02 0.01 0.02 0.01 0.01 0.02 0.02 0.02 0.02 0.02 0.02 0.02
0.00 0.00 0.01 0.01 0.01 0.01 0.01 0.02 0.02 0.02 0.02 0.02 0.02 0.02 0.02 0.02 0.04 0.04 0.06 0.08 0.09 0.08 0.06 0.06 0.08 0.09 0.07 0.07 0.07 0.06 0.06 0.05 0.02 0.02 0.02 0.02 0.03 0.02 0.01 0.02 0.02 0.02 0.02 0.03
0.01 0.01 0.01 0.01 0.01 0.01 0.02 0.02 0.02 0.03 0.04 0.04 0.03 0.03 0.03 0.03 0.04 0.04 0.04 0.05 0.06 0.05 0.05 0.05 0.05 0.06 0.08 0.07 0.06 0.07 0.06 0.04 0.03 0.02 0.02 0.03 0.02 0.02 0.02 0.02 0.01 0.01 0.01 0.02
0.01 0.01 0.01 0.02 0.02 0.02 0.03 0.03 0.03 0.04 0.04 0.03 0.05 0.04 0.03 0.03 0.04 0.03 0.03 0.02 0.03 0.02 0.02 0.04 0.04 0.04 0.05 0.06 0.06 0.05 0.04 0.03 0.02 0.01 0.01 0.02 0.02 0.02 0.02 0.02 0.01 0.01 0.01 0.01
0.02 0.03 0.04 0.04 0.03 0.03 0.03 0.03 0.04 0.05 0.05 0.04 0.04 0.06 0.04 0.02 0.03 0.03 0.03 0.02 0.02 0.02 0.02 0.03 0.03 0.04 0.04 0.05 0.06 0.05 0.03 0.02 0.02 0.02 0.01 0.02 0.02 0.03 0.03 0.03 0.03 0.03 0.03 0.02
0.03 0.05 0.05 0.05 0.04 0.05 0.05 0.04 0.04 0.05 0.05 0.04 0.04 0.06 0.06 0.05 0.05 0.04 0.04 0.04 0.04 0.03 0.03 0.03 0.03 0.04 0.04 0.04 0.05 0.04 0.03 0.02 0.02 0.01 0.01 0.02 0.04 0.04 0.03 0.04 0.05 0.05 0.04 0.04
0.03 0.03 0.04 0.04 0.05 0.05 0.05 0.04 0.04 0.04 0.04 0.04 0.05 0.05 0.06 0.06 0.05 0.05 0.04 0.03 0.05 0.04 0.03 0.03 0.04 0.04 0.04 0.05 0.05 0.04 0.02 0.02 0.02 0.01 0.02 0.03 0.03 0.03 0.03 0.05 0.05 0.04 0.04 0.03
0.02 0.03 0.03 0.05 0.07 0.08 0.07 0.05 0.05 0.06 0.05 0.05 0.05 0.04 0.04 0.05 0.06 0.06 0.05 0.05 0.05 0.06 0.03 0.04 0.04 0.05 0.05 0.05 0.06 0.05 0.05 0.04 0.03 0.03 0.03 0.03 0.03 0.03 0.03 0.03 0.02 0.02 0.02 0.02
0.03 0.04 0.04 0.06 0.10 0.08 0.07 0.07 0.05 0.04 0.04 0.05 0.05 0.04 0.03 0.03 0.03 0.04 0.04 0.05 0.04 0.05 0.04 0.04 0.05 0.06 0.07 0.07 0.08 0.09 0.07 0.07 0.08 0.07 0.05 0.04 0.03 0.03 0.03 0.03 0.02 0.01 0.01 0.02
0.03 0.04 0.05 0.06 0.06 0.05 0.04 0.04 0.04 0.04 0.04 0.06 0.07 0.08 0.05 0.03 0.03 0.03 0.03 0.05 0.04 0.04 0.04 0.05 0.05 0.06 0.08 0.08 0.09 0.11 0.10 0.08 0.07 0.09 0.08 0.05 0.04 0.03 0.03 0.03 0.03 0.02 0.02 0.02
0.03 0.04 0.04 0.03 0.03 0.02 0.02 0.02 0.02 0.02 0.03 0.05 0.05 0.06 0.05 0.03 0.03 0.03 0.03 0.04 0.03 0.04 0.04 0.06 0.07 0.06 0.07 0.06 0.05 0.06 0.08 0.09 0.07 0.07 0.08 0.08 0.06 0.04 0.04 0.03 0.03 0.03 0.03 0.03
0.03 0.04 0.04 0.04 0.03 0.02 0.02 0.02 0.02 0.02 0.03 0.03 0.04 0.04 0.04 0.03 0.02 0.03 0.04 0.03 0.03 0.05 0.07 0.07 0.08 0.09 0.07 0.06 0.05 0.05 0.06 0.08 0.08 0.08 0.06 0.07 0.05 0.04 0.03 0.02 0.02 0.02 0.02 0.02
0.03 0.04 0.04 0.04 0.03 0.03 0.02 0.02 0.03 0.03 0.03 0.03 0.04 0.04 0.03 0.03 0.03 0.03 0.04 0.04 0.05 0.08 0.07 0.07 0.05 0.05 0.05 0.05 0.04 0.03 0.04 0.05 0.06 0.07 0.08 0.08 0.06 0.04 0.03 0.03 0.03 0.03 0.03 0.03
0.04 0.03 0.03 0.03 0.03 0.03 0.02 0.02 0.02 0.03 0.03 0.03 0.02 0.02 0.02 0.02 0.02 0.03 0.03 0.03 0.03 0.04 0.04 0.04 0.03 0.02 0.02 0.03 0.02 0.02 0.02 0.02 0.03 0.05 0.07 0.08 0.07 0.06 0.05 0.04 0.05 0.05 0.05 0.04
0.04 0.04 0.03 0.02 0.02 0.02 0.01 0.01 0.01 0.01 0.02 0.03 0.02 0.01 0.00 0.00 0.01 0.01 0.02 0.01 0.01 0.01 0.03 0.04 0.03 0.02 0.01 0.01 0.01 0.01 0.02 0.02 0.03 0.04 0.04 0.04 0.03 0.03 0.03 0.03 0.04 0.06 0.07 0.07
0.04 0.04 0.03 0.02 0.02 0.02 0.01 0.01 0.01 0.01 0.02 0.02 0.01 0.00 0.00 0.00 0.00 0.01 0.01 0.01 0.01 0.01 0.01 0.01 0.02 0.02 0.03 0.02 0.02 0.02 0.02 0.03 0.04 0.04 0.03 0.02 0.01 0.01 0.01 0.02 0.02 0.03 0.03 0.03
0.05 0.04 0.03 0.02 0.02 0.01 0.01 0.01 0.01 0.02 0.02 0.01 0.01 0.01 0.01 0.01 0.01 0.01 0.02 0.03 0.03 0.03 0.02 0.02 0.02 0.03 0.04 0.04 0.03 0.02 0.02 0.02 0.02 0.02 0.03 0.02 0.02 0.02 0.02 0.02 0.02 0.02 0.02 0.02
0.03 0.03 0.02 0.02 0.01 0.01 0.02 0.02 0.02 0.02 0.02 0.02 0.01 0.01 0.01 0.01 0.02 0.02 0.02 0.02 0.02 0.02 0.02 0.02 0.02 0.01 0.01 0.02 0.02 0.02 0.01 0.01 0.01 0.02 0.02 0.02 0.02 0.02 0.03 0.03 0.04 0.04 0.04 0.04
0.04 0.03 0.02 0.02 0.01 0.02 0.02 0.03 0.03 0.02 0.01 0.01 0.01 0.01 0.01 0.00 0.00 0.00 0.00 0.00 0.01 0.01 0.00 0.00 0.00 0.00 0.01 0.01 0.01 0.01 0.01 0.01 0.01 0.01 0.01 0.01 0.01 0.02 0.02 0.03 0.03 0.03 0.03 0.04
0.03 0.02 0.02 0.02 0.02 0.02 0.02 0.02 0.02 0.01 0.01 0.01 0.01 0.01 0.01 0.01 0.00 0.00 0.01 0.01 0.01 0.01 0.01 0.01 0.01 0.01 0.01 0.01 0.01 0.01 0.01 0.01 0.01 0.01 0.01 0.01 0.01 0.01 0.02 0.02 0.03 0.04 0.05 0.05
0.03 0.03 0.03 0.03 0.02 0.02 0.02 0.01 0.01 0.01 0.01 0.01 0.01 0.01 0.02 0.02 0.01 0.01 0.01 0.01 0.01 0.01 0.01 0.01 0.01 0.01 0.01 0.01 0.01 0.01 0.01 0.01 0.01 0.01 0.01 0.01 0.01 0.01 0.01 0.01 0.01 0.02 0.03 0.03
0.03 0.04 0.04 0.03 0.02 0.01 0.01 0.01 0.01 0.01 0.01 0.00 0.00 0.01 0.02 0.02 0.01 0.01 0.01 0.01 0.01 0.01 0.01 0.01 0.00 0.01 0.01 0.01 0.00 0.00 0.00 0.00 0.01 0.01 0.01 0.01 0.01 0.01 0.01 0.01 0.02 0.03 0.03 0.04
MSLP
1012.23 1012.18 1012.15 1012.13 1012.14 1012.16 1012.19 1012.21 1012.21 1012.23 1012.26 1012.34 1012.49 1012.75 1013.10 1013.55 1014.06 1014.59 1015.11 1015.56 1015.91 1016.17 1016.33 1016.42 1016.47 1016.53 1016.60 1016.72 1016.88 1017.05 1017.21 1017.33 1017.37 1017.33 1017.19 1016.98 1016.70 1016.40 1016.08 1015.77 1015.47 1015.18 1014.88 1014.56
1012.79 1012.68 1012.50 1012.27 1012.01 1011.74 1011.51 1011.32 1011.20 1011.17 1011.26 1011.48 1011.83 1012.31 1012.88 1013.51 1014.15 1014.77 1015.31 1015.75 1016.08 1016.30 1016.43 1016.51 1016.57 1016.64 1016.74 1016.87 1017.02 1017.17 1017.29 1017.34 1017.31 1017.20 1016.99 1016.71 1016.40 1016.07 1015.75 1015.45 1015.17 1014.90 1014.62 1014.32
1013.33 1013.16 1012.86 1012.46 1012.00 1011.53 1011.10 1010.75 1010.55 1010.50 1010.64 1010.97 1011.47 1012.10 1012.82 1013.58 1014.30 1014.96 1015.51 1015.92 1016.21 1016.40 1016.50 1016.56 1016.62 1016.70 1016.80 1016.93 1017.06 1017.17 1017.23 1017.20 1017.09 1016.89 1016.62 1016.30 1015.96 1015.63 1015.33 1015.06 1014.81 1014.58 1014.33 1014.04
1013.80 1013.58 1013.19 1012.68 1012.08 1011.47 1010.92 1010.49 1010.23 1010.19 1010.37 1010.78 1011.38 1012.12 1012.93 1013.75 1014.51 1015.17 1015.70 1016.08 1016.33 1016.48 1016.56 1016.61 1016.67 1016.74 1016.84 1016.95 1017.04 1017.09 1017.07 1016.97 1016.77 1016.50 1016.17 1015.81 1015.46 1015.14 1014.86 1014.63 1014.43 1014.24 1014.03 1013.77
1014.16 1013.89 1013.43 1012.84 1012.17 1011.50 1010.89 1010.43 1010.17 1010.15 1010.38 1010.84 1011.51 1012.30 1013.15 1013.99 1014.75 1015.39 1015.89 1016.23 1016.45 1016.57 1016.64 1016.68 1016.73 1016.80 1016.89 1016.96 1017.01 1017.00 1016.90 1016.71 1016.44 1016.10 1015.72 1015.33 1014.98 1014.67 1014.43 1014.24 1014.09 1013.94 1013.77 1013.53
1014.38 1014.04 1013.53 1012.90 1012.21 1011.52 1010.93 1010.49 1010.27 1010.29 1010.57 1011.08 1011.77 1012.59 1013.44 1014.26 1015.00 1015.61 1016.07 1016.39 1016.58 1016.69 1016.75 1016.80 1016.85 1016.91 1016.98 1017.02 1017.02 1016.94 1016.77 1016.51 1016.16 1015.76 1015.34 1014.93 1014.58 1014.29 1014.08 1013.93 1013.81 1013.70 1013.55 1013.32
1014.41 1014.00 1013.46 1012.82 1012.15 1011.50 1010.97 1010.59 1010.44 1010.53 1010.86 1011.40 1012.11 1012.92 1013.76 1014.55 1015.25 1015.82 1016.25 1016.54 1016.72 1016.83 1016.90 1016.96 1017.02 1017.08 1017.12 1017.13 1017.08 1016.95 1016.71 1016.39 1015.98 1015.54 1015.08 1014.66 1014.30 1014.01 1013.82 1013.69 1013.60 1013.50 1013.36 1013.14
1014.24 1013.77 1013.22 1012.60 1011.99 1011.43 1010.98 1010.71 1010.65 1010.82 1011.20 1011.78 1012.49 1013.28 1014.09 1014.84 1015.49 1016.03 1016.43 1016.70 1016.89 1017.00 1017.09 1017.16 1017.22 1017.28 1017.31 1017.29 1017.20 1017.01 1016.73 1016.35 1015.91 1015.42 1014.94 1014.50 1014.13 1013.84 1013.64 1013.51 1013.41 1013.32 1013.18 1012.96
1013.89 1013.39 1012.84 1012.28 1011.75 1011.31 1010.99 1010.85 1010.89 1011.14 1011.58 1012.18 1012.89 1013.66 1014.42 1015.13 1015.74 1016.23 1016.61 1016.88 1017.06 1017.19 1017.28 1017.36 1017.43 1017.48 1017.50 1017.46 1017.33 1017.11 1016.79 1016.38 1015.91 1015.40 1014.89 1014.44 1014.04 1013.74 1013.52 1013.36 1013.24 1013.12 1012.96 1012.72
1013.38 1012.88 1012.38 1011.91 1011.50 1011.20 1011.02 1011.01 1011.17 1011.50 1012.00 1012.61 1013.32 1014.05 1014.76 1015.42 1015.98 1016.44 1016.79 1017.04 1017.23 1017.36 1017.46 1017.55 1017.61 1017.65 1017.65 1017.58 1017.43 1017.19 1016.85 1016.42 1015.93 1015.41 1014.90 1014.42 1014.00 1013.66 1013.40 1013.20 1013.03 1012.87 1012.68 1012.42
1012.77 1012.31 1011.89 1011.54 1011.27 1011.12 1011.10 1011.22 1011.49 1011.91 1012.44 1013.07 1013.75 1014.44 1015.10 1015.70 1016.21 1016.63 1016.96 1017.20 1017.37 1017.50 1017.60 1017.67 1017.72 1017.74 1017.72 1017.63 1017.46 1017.20 1016.85 1016.43 1015.94 1015.42 1014.90 1014.41 1013.97 1013.59 1013.27 1013.01 1012.78 1012.56 1012.32 1012.03
1012.11 1011.73 1011.43 1011.22 1011.11 1011.12 1011.24 1011.49 1011.86 1012.34 1012.90 1013.52 1014.17 1014.81 1015.42 1015.96 1016.42 1016.80 1017.09 1017.31 1017.46 1017.58 1017.65 1017.71 1017.74 1017.73 1017.68 1017.57 1017.39 1017.12 1016.78 1016.37 1015.90 1015.40 1014.88 1014.38 1013.92 1013.49 1013.12 1012.79 1012.49 1012.20 1011.91 1011.59
1011.46 1011.19 1011.03 1010.97 1011.02 1011.18 1011.44 1011.80 1012.25 1012.77 1013.34 1013.94 1014.55 1015.14 1015.68 1016.17 1016.58 1016.91 1017.17 1017.36 1017.49 1017.58 1017.63 1017.66 1017.65 1017.62 1017.54 1017.41 1017.22 1016.96 1016.64 1016.25 1015.81 1015.34 1014.84 1014.35 1013.86 1013.41 1012.98 1012.58 1012.20 1011.85 1011.49 1011.13
1010.85 1010.72 1010.70 1010.79 1010.99 1011.29 1011.66 1012.11 1012.62 1013.16 1013.73 1014.30 1014.86 1015.39 1015.88 1016.31 1016.67 1016.96 1017.18 1017.35 1017.45 1017.51 1017.54 1017.53 1017.49 1017.42 1017.32 1017.17 1016.98 1016.74 1016.44 1016.10 1015.70 1015.27 1014.80 1014.32 1013.84 1013.35 1012.88 1012.42 1011.98 1011.55 1011.14 1010.73
1010.31 1010.31 1010.44 1010.67 1011.01 1011.42 1011.89 1012.40 1012.94 1013.49 1014.04 1014.57 1015.08 1015.55 1015.98 1016.36 1016.68 1016.94 1017.14 1017.27 1017.36 1017.40 1017.39 1017.36 1017.29 1017.19 1017.07 1016.92 1016.73 1016.51 1016.25 1015.94 1015.60 1015.22 1014.80 1014.35 1013.87 1013.37 1012.87 1012.36 1011.86 1011.37 1010.90 1010.44
1009.86 1009.99 1010.24 1010.61 1011.05 1011.56 1012.09 1012.65 1013.20 1013.74 1014.25 1014.74 1015.20 1015.62 1016.00 1016.34 1016.63 1016.86 1017.04 1017.17 1017.24 1017.26 1017.24 1017.18 1017.09 1016.98 1016.84 1016.68 1016.51 1016.31 1016.09 1015.83 1015.55 1015.22 1014.85 1014.44 1013.99 1013.50 1012.98 1012.45 1011.91 1011.36 1010.84 1010.33
1009.51 1009.76 1010.13 1010.59 1011.13 1011.70 1012.28 1012.85 1013.40 1013.92 1014.40 1014.84 1015.25 1015.63 1015.97 1016.28 1016.54 1016.76 1016.94 1017.06 1017.13 1017.15 1017.12 1017.05 1016.95 1016.82 1016.68 1016.52 1016.36 1016.19 1016.00 1015.80 1015.56 1015.29 1014.98 1014.62 1014.21 1013.74 1013.23 1012.68 1012.12 1011.55 1010.98 1010.44
1009.29 1009.64 1010.10 1010.65 1011.24 1011.85 1012.46 1013.03 1013.56 1014.05 1014.50 1014.90 1015.27 1015.61 1015.93 1016.21 1016.47 1016.68 1016.86 1016.99 1017.06 1017.09 1017.06 1016.99 1016.88 1016.75 1016.61 1016.46 1016.31 1016.15 1016.00 1015.83 1015.65 1015.44 1015.18 1014.87 1014.51 1014.08 1013.59 1013.06 1012.50 1011.91 1011.33 1010.75
1009.23 1009.66 1010.19 1010.79 1011.42 1012.05 1012.65 1013.22 1013.73 1014.19 1014.60 1014.97 1015.30 1015.61 1015.91 1016.18 1016.43 1016.65 1016.84 1016.98 1017.06 1017.10 1017.08 1017.01 1016.91 1016.78 1016.64 1016.49 1016.35 1016.21 1016.08 1015.95 1015.80 1015.64 1015.43 1015.17 1014.86 1014.48 1014.04 1013.55 1013.00 1012.43 1011.84 1011.26
1009.34 1009.82 1010.40 1011.02 1011.67 1012.30 1012.89 1013.43 1013.91 1014.34 1014.72 1015.06 1015.37 1015.66 1015.94 1016.21 1016.46 1016.69 1016.89 1017.04 1017.14 1017.19 1017.18 1017.12 1017.03 1016.90 1016.76 1016.61 1016.47 1016.34 1016.22 1016.11 1015.99 1015.86 1015.70 1015.49 1015.23 1014.91 1014.53 1014.08 1013.59 1013.05 1012.48 1011.91
1009.62 1010.14 1010.73 1011.36 1012.00 1012.60 1013.17 1013.68 1014.13 1014.53 1014.88 1015.19 1015.48 1015.77 1016.04 1016.30 1016.55 1016.79 1016.99 1017.16 1017.27 1017.33 1017.33 1017.29 1017.20 1017.08 1016.94 1016.79 1016.65 1016.52 1016.40 1016.29 1016.19 1016.08 1015.95 1015.79 1015.58 1015.32 1015.00 1014.62 1014.19 1013.70 1013.18 1012.64
1010.07 1010.59 1011.17 1011.78 1012.38 1012.95 1013.48 1013.95 1014.36 1014.73 1015.05 1015.35 1015.63 1015.90 1016.17 1016.43 1016.69 1016.92 1017.14 1017.31 1017.43 1017.50 1017.52 1017.48 1017.40 1017.28 1017.14 1016.99 1016.84 1016.70 1016.58 1016.48 1016.38 1016.28 1016.17 1016.05 1015.89 1015.68 1015.42 1015.12 1014.75 1014.34 1013.88 1013.38
1010.64 1011.14 1011.69 1012.25 1012.79 1013.31 1013.79 1014.21 1014.59 1014.92 1015.23 1015.51 1015.78 1016.05 1016.32 1016.58 1016.83 1017.07 1017.29 1017.46 1017.59 1017.66 1017.68 1017.65 1017.58 1017.46 1017.33 1017.17 1017.02 1016.88 1016.75 1016.63 1016.53 1016.44 1016.34 1016.24 1016.12 1015.96 1015.77 1015.52 1015.23 1014.89 1014.51 1014.07
1011.27 1011.73 1012.21 1012.71 1013.18 1013.64 1014.05 1014.43 1014.77 1015.08 1015.37 1015.65 1015.91 1016.18 1016.45 1016.71 1016.96 1017.20 1017.41 1017.58 1017.71 1017.79 1017.81 1017.79 1017.72 1017.61 1017.47 1017.32 1017.16 1017.01 1016.87 1016.75 1016.64 1016.54 1016.45 1016.36 1016.26 1016.14 1016.00 1015.81 1015.59 1015.32 1015.01 1014.64
1011.90 1012.29 1012.70 1013.11 1013.51 1013.90 1014.25 1014.59 1014.89 1015.19 1015.46 1015.74 1016.01 1016.28 1016.54 1016.81 1017.06 1017.29 1017.49 1017.66 1017.78 1017.85 1017.88 1017.85 1017.78 1017.68 1017.54 1017.39 1017.23 1017.08 1016.93 1016.79 1016.67 1016.57 1016.47 1016.39 1016.30 1016.21 1016.09 1015.96 1015.79 1015.58 1015.33 1015.03
1012.46 1012.77 1013.10 1013.43 1013.76 1014.07 1014.38 1014.67 1014.96 1015.24 1015.51 1015.79 1016.07 1016.34 1016.61 1016.87 1017.12 1017.34 1017.53 1017.67 1017.78 1017.84 1017.85 1017.82 1017.75 1017.65 1017.51 1017.36 1017.20 1017.04 1016.89 1016.74 1016.61 1016.50 1016.39 1016.30 1016.22 1016.13 1016.04 1015.94 1015.81 1015.65 1015.44 1015.20
1012.89 1013.14 1013.39 1013.65 1013.91 1014.18 1014.44 1014.71 1014.98 1015.26 1015.54 1015.83 1016.11 1016.39 1016.66 1016.91 1017.14 1017.34 1017.50 1017.62 1017.70 1017.74 1017.73 1017.69 1017.60 1017.49 1017.36 1017.21 1017.05 1016.89 1016.72 1016.57 1016.43 1016.30 1016.19 1016.09 1015.99 1015.91 1015.82 1015.73 1015.63 1015.50 1015.33 1015.13
Thickness
5738 5748 5751 5753 5754 5752 5749 5746 5741 5749 5754 5770 5779 5784 5788 5789 5789 5788 5789 5790 5790 5790 5790 5789 5788 5786 5784 5781 5779 5776 5771 5767 5765 5763 5760 5758 5755 5753 5752 5750 5748 5746 5743 5741
5731 5741 5745 5745 5751 5752 5752 5752 5750 5754 5757 5775 5780 5781 5781 5782 5784 5783 5784 5786 5786 5786 5785 5784 5784 5782 5780 5778 5775 5772 5768 5765 5763 5759 5756 5754 5752 5750 5748 5746 5744 5742 5740 5738
5710 5725 5733 5726 5743 5747 5749 5752 5752 5749 5760 5768 5769 5772 5774 5777 5779 5780 5780 5781 5781 5781 5781 5780 5779 5778 5775 5774 5771 5767 5763 5760 5758 5756 5752 5750 5748 5745 5743 5742 5740 5738 5737 5734
5697 5711 5703 5728 5751 5752 5749 5751 5755 5757 5761 5763 5765 5767 5771 5773 5774 5775 5775 5775 5775 5776 5775 5774 5772 5771 5770 5768 5764 5761 5758 5755 5753 5751 5748 5745 5742 5741 5739 5737 5735 5733 5732 5730
5685 5690 5703 5728 5743 5746 5741 5741 5751 5751 5755 5756 5759 5760 5760 5767 5769 5769 5770 5770 5770 5770 5769 5767 5764 5763 5763 5760 5757 5754 5751 5749 5748 5745 5742 5739 5737 5735 5733 5730 5728 5727 5726 5724
5682 5686 5689 5718 5741 5749 5743 5729 5747 5748 5748 5748 5749 5740 5747 5758 5760 5761 5763 5763 5763 5763 5762 5759 5757 5757 5754 5751 5748 5747 5744 5742 5742 5740 5737 5734 5732 5730 5727 5725 5722 5720 5719 5717
5678 5682 5695 5720 5732 5739 5718 5725 5743 5743 5743 5742 5741 5742 5746 5749 5750 5752 5753 5754 5754 5753 5751 5750 5750 5749 5744 5742 5740 5740 5738 5735 5734 5732 5730 5728 5726 5724 5721 5718 5715 5713 5710 5709
5672 5676 5688 5717 5722 5718 5719 5731 5735 5736 5736 5736 5735 5736 5739 5739 5739 5740 5740 5741 5742 5741 5740 5740 5741 5739 5736 5733 5734 5732 5728 5726 5725 5723 5722 5721 5717 5714 5712 5710 5706 5704 5701 5700
5677 5682 5698 5707 5712 5718 5721 5722 5725 5726 5727 5729 5728 5728 5728 5727 5727 5728 5729 5729 5730 5730 5729 5729 5730 5729 5726 5725 5724 5722 5719 5716 5715 5714 5713 5711 5708 5705 5702 5700 5697 5695 5693 5691
5675 5685 5693 5700 5707 5712 5715 5716 5718 5719 5720 5720 5718 5717 5716 5715 5715 5716 5717 5718 5718 5718 5718 5718 5719 5718 5717 5715 5714 5711 5709 5707 5706 5705 5702 5700 5700 5697 5693 5691 5689 5687 5685 5683
5669 5679 5687 5694 5697 5702 5706 5708 5709 5709 5709 5709 5709 5706 5705 5704 5703 5703 5704 5705 5706 5706 5706 5707 5707 5707 5706 5706 5704 5702 5699 5698 5697 5694 5692 5690 5688 5687 5685 5683 5681 5678 5676 5675
5666 5675 5677 5681 5688 5693 5695 5696 5698 5698 5696 5698 5698 5696 5695 5694 5692 5691 5692 5693 5693 5695 5696 5697 5697 5696 5696 5696 5695 5692 5689 5688 5687 5684 5682 5680 5678 5676 5675 5673 5671 5669 5668 5666
5669 5673 5675 5678 5681 5684 5684 5686 5688 5689 5688 5688 5687 5687 5686 5684 5683 5682 5682 5682 5682 5684 5686 5687 5686 5686 5686 5685 5684 5682 5680 5678 5676 5674 5673 5670 5669 5667 5665 5663 5661 5660 5658 5657
5666 5668 5667 5670 5671 5675 5677 5678 5679 5680 5680 5680 5679 5678 5678 5675 5674 5673 5673 5673 5674 5675 5676 5676 5675 5674 5674 5673 5672 5671 5670 5668 5666 5664 5662 5661 5659 5657 5655 5653 5652 5651 5649 5646
5660 5662 5662 5663 5664 5666 5668 5669 5669 5669 5669 5669 5669 5669 5668 5666 5665 5664 5664 5665 5664 5664 5664 5664 5664 5663 5663 5663 5662 5661 5659 5657 5656 5654 5652 5651 5649 5647 5645 5643 5642 5640 5639 5638
5652 5655 5657 5657 5656 5657 5659 5660 5659 5658 5659 5659 5659 5658 5657 5657 5655 5654 5654 5655 5654 5652 5652 5652 5652 5652 5652 5652 5651 5650 5648 5647 5646 5643 5641 5640 5638 5636 5635 5633 5631 5630 5629 5627
5644 5644 5647 5648 5649 5650 5650 5651 5651 5651 5650 5650 5649 5648 5648 5647 5645 5643 5643 5643 5643 5641 5641 5640 5640 5641 5641 5640 5640 5639 5637 5636 5636 5633 5630 5628 5627 5625 5624 5623 5622 5621 5619 5617
5644 5644 5645 5645 5644 5642 5642 5643 5643 5642 5641 5641 5641 5640 5639 5637 5635 5634 5633 5633 5632 5631 5631 5631 5630 5630 5631 5630 5629 5628 5627 5625 5624 5622 5620 5618 5616 5614 5614 5613 5612 5610 5608 5606
5638 5638 5639 5639 5638 5637 5636 5635 5635 5634 5634 5633 5632 5631 5630 5629 5628 5627 5626 5624 5623 5622 5621 5622 5622 5621 5621 5620 5619 5617 5615 5614 5613 5611 5610 5608 5606 5605 5604 5602 5601 5598 5596 5594
5633 5633 5633 5632 5631 5630 5628 5628 5628 5627 5626 5625 5624 5623 5622 5622 5621 5620 5619 5617 5616 5615 5615 5614 5614 5613 5612 5611 5610 5608 5606 5605 5603 5601 5600 5598 5596 5595 5593 5592 5591 5588 5586 5584
5627 5627 5627 5625 5623 5622 5622 5621 5621 5620 5619 5618 5617 5616 5615 5614 5614 5613 5611 5609 5609 5608 5608 5607 5606 5605 5603 5602 5600 5598 5597 5596 5594 5591 5589 5588 5586 5584 5583 5581 5580 5578 5575 5573
5619 5619 5619 5617 5615 5614 5614 5614 5614 5613 5612 5611 5610 5610 5608 5607 5606 5604 5602 5602 5602 5601 5600 5599 5598 5597 5595 5593 5592 5589 5587 5585 5583 5581 5579 5577 5575 5574 5573 5571 5569 5567 5565 5562
5612 5612 5611 5610 5609 5608 5608 5607 5607 5607 5605 5604 5603 5602 5601 5599 5597 5596 5595 5594 5594 5594 5592 5590 5589 5588 5586 5584 5582 5580 5578 5575 5573 5571 5568 5567 5565 5564 5562 5561 5559 5557 5554 5552
5606 5605 5604 5604 5604 5602 5601 5600 5600 5599 5598 5597 5596 5595 5594 5591 5590 5589 5588 5588 5587 5586 5584 5581 5580 5579 5577 5575 5573 5571 5568 5566 5563 5561 5560 5558 5556 5555 5553 5551 5549 5547 5545 5542
5601 5600 5599 5598 5597 5596 5595 5594 5593 5592 5591 5590 5589 5588 5586 5585 5584 5583 5582 5580 5579 5578 5576 5574 5572 5570 5568 5566 5564 5562 5559 5557 5555 5552 5551 5549 5547 5545 5543 5540 5538 5536 5534 5531
5595 5594 5593 5593 5592 5591 5590 5589 5587 5586 5585 5583 5581 5580 5579 5578 5577 5576 5575 5573 5572 5570 5567 5565 5564 5562 5559 5557 5556 5553 5551 5549 5547 5545 5543 5540 5537 5534 5532 5529 5527 5524 5522 5520
5590 5589 5588 5588 5587 5586 5585 5584 5582 5580 5579 5577 5575 5574 5573 5572 5571 5569 5568 5566 5564 5562 5560 5558 5556 5554 5552 5549 5547 5545 5543 5540 5538 5536 5533 5530 5527 5524 5521 5519 5516 5514 5512 5509